Torna al catalogo

ONEWEB-0241

AttivoComunicazioniPO
NORAD 48773·PAYLOAD·🇬🇧 United Kingdom

Lanciato May 28, 2021 da Vostochny Cosmodrome

Loading…

Prossimi Passaggi (prossime 24 ore)

TLE

AggiornatoSource: CelesTrak SupGP

Epoca: Sep 14, 2026, 10:08 UTC

1 48773C 21045G   26257.42236528  .00002367  00000+0  62961-2 0  2575
2 48773  87.8991 241.4109 0001999  75.8443  27.3683 13.15549700    18

Traccia ONEWEB-0241 in tempo reale con AllMySat

Download on the App Store